רגע לפני שאתם עוזבים...
יש לנו ב
הצעה מיוחד עבורכם!
מספר שירותים שכדאי שתכירו
| לוחית | שעת חיפוש | ||||
| 1683831 | מיצובישי יפן | PAJERO | 2014 | 29/08/2026 | 12:15:35 |
| 1683831 | מיצובישי יפן | PAJERO | 2014 | 29/08/2026 | 12:15:34 |
| 52698801 | יונדאי צ'כיה | TUCSON | 2018 | 29/08/2026 | 12:15:33 |
| 6496439 | יונדאי קוריאה הדרומית | SONATA HYBRID | 2016 | 29/08/2026 | 12:15:27 |
| 13804604 | גילי סין | GEOMETRY C | 2024 | 29/08/2026 | 12:15:21 |
| 41835802 | סטרקמאן צרפת | - | 2022 | 29/08/2026 | 12:15:20 |
| 47829503 | יונדאי טורקיה | BAYON | 2023 | 29/08/2026 | 12:15:20 |
| 6760432 | דימלרקריזלר-גר | - | 2015 | 29/08/2026 | 12:15:13 |
| 5768455 | מרצדס בנץ גרמנ | - | 2018 | 29/08/2026 | 12:15:10 |
| 59502501 | ב מ וו גרמניה | M850I XDRIVE | 2019 | 29/08/2026 | 12:15:05 |
| 2925130 | יונדאי קוריאה הדרומית | I25 | 2014 | 29/08/2026 | 12:14:53 |
| 17778503 | גולדן דרגון סי | - | 2023 | 29/08/2026 | 12:14:52 |
| 8918235 | פולקסווגן גרמניה | PASSAT | 2002 | 29/08/2026 | 12:14:51 |
| 47081402 | רנו טורקיה | MEGANE | 2021 | 29/08/2026 | 12:14:50 |
| 1438631 | מיצובישי תאילנד | SPACE STAR | 2014 | 29/08/2026 | 12:14:39 |
| 2354767 | פולקסווגן מקסיקה | JETTA | 2009 | 29/08/2026 | 12:14:34 |
| 1683831 | מיצובישי יפן | PAJERO | 2014 | 29/08/2026 | 12:14:32 |
| 18000003 | סובארו יפן | FORESTER | 2023 | 29/08/2026 | 12:14:30 |
| 78797402 | מרצדס גרמניה | C300 | 2022 | 29/08/2026 | 12:14:29 |
| 1732833 | ניסאן בריטניה | QASHQAI | 2015 | 29/08/2026 | 12:14:24 |
| 5039952 | ניסאן ספרד | - | 2013 | 29/08/2026 | 12:14:23 |
| 6452619 | טויוטה יפן | היילקס C/D 4X4 | 1998 | 29/08/2026 | 12:14:19 |
| 25124701 | שברולט ארהב" | TRAVERSE | 2018 | 29/08/2026 | 12:14:09 |
| 6692030 | טויוטה טורקיה | COROLLA | 2014 | 29/08/2026 | 12:14:04 |
| 18885203 | ב מ וו גרמניה | 430I | 2022 | 29/08/2026 | 12:14:04 |
| 7254070 | וולבו שבדיה | - | 2011 | 29/08/2026 | 12:14:02 |
| 40818304 | קיי גי מוביליט | REXTON | 2025 | 29/08/2026 | 12:13:55 |
| 62866501 | אאודי גרמניה | A5 COUPE | 2019 | 29/08/2026 | 12:13:55 |
| 9495573 | מרצדס בנץ גרמנ | - | 2011 | 29/08/2026 | 12:13:46 |
| 1193176 | מזדה יפן | CX-5 | 2013 | 29/08/2026 | 12:13:44 |
| 2038275 | סובארו יפן | FORESTER TURBO | 2013 | 29/08/2026 | 12:13:43 |
| 6615139 | יונדאי קוריאה הדרומית | I25 | 2016 | 29/08/2026 | 12:13:38 |
| 1168932 | יונדאי צ'כיה | I30 | 2014 | 29/08/2026 | 12:13:37 |
| 9630050 | הונדה יפן | ACCORD | 2003 | 29/08/2026 | 12:13:36 |
| 62866501 | אאודי גרמניה | A5 COUPE | 2019 | 29/08/2026 | 12:13:35 |
| 76666603 | אקספנג סין | G6 | 2024 | 29/08/2026 | 12:13:33 |
| 62866501 | אאודי גרמניה | A5 COUPE | 2019 | 29/08/2026 | 12:13:33 |
| 62866501 | אאודי גרמניה | A5 COUPE | 2019 | 29/08/2026 | 12:13:33 |
| 81159404 | ג'אקו סין | JAECOO7 PHEV | 2026 | 29/08/2026 | 12:13:23 |
| 33024602 | טויוטה יפן | RAV 4 HYBRID | 2020 | 29/08/2026 | 12:13:18 |
| 67885604 | אלפא רומיאו פולין | JUNIOR | 2026 | 29/08/2026 | 12:13:18 |
| 45713902 | אודי מקסיקו | Q5 | 2021 | 29/08/2026 | 12:13:18 |
| 5274534 | סובארו יפן | XV | 2015 | 29/08/2026 | 12:13:12 |
| 9121653 | איסוזו תאילנד | PICK-UP | 2013 | 29/08/2026 | 12:13:08 |
| 67033301 | אאודי בלגיה | ETRON | 2019 | 29/08/2026 | 12:13:07 |
| 5589481 | מיצובישי יפן | OUTLANDER PHEV | 2017 | 29/08/2026 | 12:13:04 |
| 6893963 | פורד ספרד | FOCUS | 2008 | 29/08/2026 | 12:13:03 |
| 67498401 | וולבו בלגיה | - | 2019 | 29/08/2026 | 12:13:01 |
| 5159112 | סיאט ספרד | IBIZA FLOW | 2013 | 29/08/2026 | 12:12:55 |
| 62866501 | אאודי גרמניה | A5 COUPE | 2019 | 29/08/2026 | 12:12:54 |
| 28381104 | מרצדס בנץ גרמנ | - | 2025 | 29/08/2026 | 12:12:52 |
| 17618201 | יונדאי קוריאה הדרומית | IONIQ HYBRID | 2018 | 29/08/2026 | 12:12:51 |
| 6450586 | טויוטה טורקיה | C-HR HYBRID | 2017 | 29/08/2026 | 12:12:50 |
| 2006874 | סיטרואן ספרד | C4 GD PICASSO | 2011 | 29/08/2026 | 12:12:43 |
| 7676509 | טויוטה טורקיה | COROLLA | 2017 | 29/08/2026 | 12:12:32 |
| 1530972 | דייהטסו יפן | SIRION | 2010 | 29/08/2026 | 12:12:25 |
| 15620402 | רנו טורקיה | MEGANE | 2020 | 29/08/2026 | 12:12:23 |
| 1524213 | האמר ארהב" | - | 2006 | 29/08/2026 | 12:12:17 |
| 7893963 | טויוטה יפן | COROLLA | 2008 | 29/08/2026 | 12:12:16 |
| 2239268 | סיטרואן ספרד | C4 PICASSO | 2009 | 29/08/2026 | 12:12:10 |
| 9121653 | איסוזו תאילנד | PICK-UP | 2013 | 29/08/2026 | 12:12:06 |
| 8527032 | אופל פולין | ASTRA | 2015 | 29/08/2026 | 12:12:04 |
| 65762404 | ג'אקו סין | JAECOO8 PHEV | 2026 | 29/08/2026 | 12:12:03 |
| 1126738 | סוזוקי תאילנד | CELERIO | 2016 | 29/08/2026 | 12:12:03 |
| 9410959 | הונדה יפן | JAZZ | 2005 | 29/08/2026 | 12:12:00 |
| 6261262 | טויוטה טורקיה | COROLLA | 2007 | 29/08/2026 | 12:11:59 |
| 5989216 | ב מ וו גרמניה | 523I | 2008 | 29/08/2026 | 12:11:56 |
| 81721603 | פולקסווגן פולי | - | 2024 | 29/08/2026 | 12:11:54 |
| 38347704 | נלינור סחר | - | 2025 | 29/08/2026 | 12:11:48 |
| 23857202 | רנו טורקיה | MEGANE | 2020 | 29/08/2026 | 12:11:44 |
| 77109803 | סיאט ספרד | IBIZA | 2024 | 29/08/2026 | 12:11:39 |
| 76666603 | אקספנג סין | G6 | 2024 | 29/08/2026 | 12:11:37 |
| 1503662 | טויוטה טורקיה | COROLLA | 2007 | 29/08/2026 | 12:11:36 |
| 3325431 | יונדאי קוריאה הדרומית | I25 | 2014 | 29/08/2026 | 12:11:34 |
| 33737301 | ב מ וו גרמניה | M5 | 2018 | 29/08/2026 | 12:11:33 |
| 7869131 | קיה קוריאה הדרומית | RIO | 2014 | 29/08/2026 | 12:11:31 |
| 24673102 | אאודי ספרד | A1 SPORTBACK | 2020 | 29/08/2026 | 12:11:30 |
| 71699403 | יונדאי קוריאה הדרומית | KONA HYBRID | 2024 | 29/08/2026 | 12:11:23 |
| 7699838 | קיה סלובקיה | CEED | 2016 | 29/08/2026 | 12:11:18 |
| 2098313 | רנו צרפת | KANGOO | 2006 | 29/08/2026 | 12:11:15 |
| 58216302 | אקסס טיוואן | - | 2021 | 29/08/2026 | 12:11:13 |
| 70346101 | קיה קוריאה הדרומית | NIRO | 2019 | 29/08/2026 | 12:11:02 |
| 1094538 | סוזוקי הונגריה | SX4 CROSSOVER | 2016 | 29/08/2026 | 12:11:01 |
| 6450586 | טויוטה טורקיה | C-HR HYBRID | 2017 | 29/08/2026 | 12:11:00 |
| 61565401 | אלפא רומיאו איטליה | ALFA GIULIETTA | 2019 | 29/08/2026 | 12:10:53 |
| 4822578 | פיג'ו צרפת | 3008 | 2011 | 29/08/2026 | 12:10:47 |
| 1566871 | סקודה צ'כיה | OCTAVIA | 2010 | 29/08/2026 | 12:10:47 |
| 56002404 | דיפאל סין | S05 | 2026 | 29/08/2026 | 12:10:47 |
| 77013003 | סקודה צ'כיה | OCTAVIA | 2024 | 29/08/2026 | 12:10:33 |
| 9098572 | טויוטה טורקיה | COROLLA | 2003 | 29/08/2026 | 12:10:29 |
| 5403765 | מזדה יפן | MAZDA 6 | 2008 | 29/08/2026 | 12:10:27 |
| 20982404 | פורשה גרמניה | 911 GTS | 2026 | 29/08/2026 | 12:10:26 |
| 28892001 | מ.ג סין | ZS | 2020 | 29/08/2026 | 12:10:23 |
| 3570723 | סובארו יפן | IMPREZA TURBO | 2004 | 29/08/2026 | 12:10:23 |
| 2277751 | אאודי הונגריה | TT | 2003 | 29/08/2026 | 12:10:18 |
| 5466860 | פיאט איטליה | GRANDE PUNTO1.4 | 2007 | 29/08/2026 | 12:10:17 |
| 31017103 | טסלה ארהב" | MODEL S | 2022 | 29/08/2026 | 12:10:14 |
| 9217432 | שברולט קוריאה הדרומית | SONIC | 2015 | 29/08/2026 | 12:10:13 |
| 1162765 | סאן יאנג טיואן | - | 2008 | 29/08/2026 | 12:10:12 |
| 21032103 | בנלי איטליה | - | 2024 | 29/08/2026 | 12:10:10 |
| 63537101 | אוובוס ספרד | - | 2019 | 29/08/2026 | 12:10:07 |
| 1196876 | מזדה יפן | CX-5 | 2013 | 29/08/2026 | 12:10:05 |
| 70764604 | סקודה צ'כיה | FABIA | 2026 | 29/08/2026 | 12:10:03 |
| 45162004 | סיאט צ'כיה | ATECA | 2025 | 29/08/2026 | 12:10:03 |
| 6450586 | טויוטה טורקיה | C-HR HYBRID | 2017 | 29/08/2026 | 12:10:01 |
| 62268804 | צ'רי סין | TIGGO 4 HYBRID | 2026 | 29/08/2026 | 12:10:00 |
| 54376902 | יונדאי קוריאה הדרומית | IONIQ HYBRID | 2021 | 29/08/2026 | 12:09:53 |
| 6106316 | ב מ וו גרמניה | 520I | 2009 | 29/08/2026 | 12:09:50 |
| 2091014 | מיצובישי יפן | LANCER | 2006 | 29/08/2026 | 12:09:48 |
| 9116971 | מרצדס בנץ גרמנ | - | 2010 | 29/08/2026 | 12:09:47 |
| 59081604 | טויוטה יפן | COROLLA CROSS | 2026 | 29/08/2026 | 12:09:45 |
| 16630104 | סקודה צ'כיה | KAMIQ FL | 2025 | 29/08/2026 | 12:09:43 |
| 20982404 | פורשה גרמניה | 911 GTS | 2026 | 29/08/2026 | 12:09:43 |
| 2016278 | סוזוקי יפן | SX4 | 2011 | 29/08/2026 | 12:09:38 |
| 57222002 | פיג'ו צרפת | 3008 | 2021 | 29/08/2026 | 12:09:33 |
| 82909402 | טויוטה צרפת | YARIS HYBRID | 2022 | 29/08/2026 | 12:09:32 |
| 6450586 | טויוטה טורקיה | C-HR HYBRID | 2017 | 29/08/2026 | 12:09:30 |
| 3033117 | הונדה ארהב" | CIVIC | 1997 | 29/08/2026 | 12:09:29 |
| 8416267 | וולבו בלגיה | S60 | 2008 | 29/08/2026 | 12:09:28 |
| 45304701 | טויוטה יפן | LAND CRUISER | 2018 | 29/08/2026 | 12:09:28 |
| 2853260 | סובארו יפן | IMPREZA | 2006 | 29/08/2026 | 12:09:27 |
| 8382770 | סיאט ספרד | IBIZA | 2010 | 29/08/2026 | 12:09:25 |
| 20982404 | פורשה גרמניה | 911 GTS | 2026 | 29/08/2026 | 12:09:24 |
| 68306503 | קיה קוריאה הדרומית | NIRO PLUS EV | 2024 | 29/08/2026 | 12:09:23 |
| 9757331 | ניסאן מקסיקו | ALMERA | 2015 | 29/08/2026 | 12:09:18 |
| 67891601 | ניסאן יפן | X-TRAIL | 2019 | 29/08/2026 | 12:09:12 |
| 6450586 | טויוטה טורקיה | C-HR HYBRID | 2017 | 29/08/2026 | 12:09:11 |
| 80522001 | טויוטה טורקיה | COROLLA HSD SDN | 2019 | 29/08/2026 | 12:09:10 |
| 42352002 | רובר בריטניה | R.ROVER EVOQUE | 2021 | 29/08/2026 | 12:09:08 |
| 1117160 | טויוטה יפן | LAND CRUISER | 2006 | 29/08/2026 | 12:09:06 |
| 7096262 | סיטרואן ספרד | C4 PICASSO | 2008 | 29/08/2026 | 12:09:03 |
| 1230931 | סוזוקי-יפן | - | 2017 | 29/08/2026 | 12:09:03 |
| 2201006 | רנו ספרד | - | 1992 | 29/08/2026 | 12:09:02 |
| 29097303 | סקיוול סין | ET5 | 2022 | 29/08/2026 | 12:08:59 |
| 1364064 | שברולט קוריאה הדרומית | AVEO | 2008 | 29/08/2026 | 12:08:58 |
| 20062001 | ניסאן הודו | MICRA | 2018 | 29/08/2026 | 12:08:53 |
| 36975001 | ליבהר | - | 2019 | 29/08/2026 | 12:08:51 |
| 51768904 | יונדאי קוריאה הדרומית | ELANTRA N | 2026 | 29/08/2026 | 12:08:47 |
| 21918601 | ניסאן יפן | X-TRAIL | 2018 | 29/08/2026 | 12:08:44 |
| 2958673 | דימלרקריזלר-גר | - | 2011 | 29/08/2026 | 12:08:44 |
| 84824303 | קיי גי מוביליט | REXTON | 2024 | 29/08/2026 | 12:08:43 |
| 2018372 | קיה קוריאה הדרומית | FORTE | 2010 | 29/08/2026 | 12:08:43 |
| 6491730 | טויוטה בריטניה | AURIS | 2014 | 29/08/2026 | 12:08:41 |
| 1324567 | פיאט איטליה | - | 2010 | 29/08/2026 | 12:08:39 |
| 1908714 | מיצובישי יפן | LANCER | 2006 | 29/08/2026 | 12:08:38 |
| 8178367 | הונדה יפן | CIVIC HYBRID | 2008 | 29/08/2026 | 12:08:38 |
| 6450586 | טויוטה טורקיה | C-HR HYBRID | 2017 | 29/08/2026 | 12:08:37 |
| 9012153 | קרייזלר מכסיקו | - | 2014 | 29/08/2026 | 12:08:32 |
| 89767002 | מזדה תאילנד | MAZDA 2 | 2022 | 29/08/2026 | 12:08:26 |
| 8908930 | פיג'ו צרפת | 308 SW | 2015 | 29/08/2026 | 12:08:22 |
| 70907703 | יונדאי קוריאה הדרומית | VENUE | 2024 | 29/08/2026 | 12:08:21 |
| 24260501 | הונדה יפן | JAZZ | 2018 | 29/08/2026 | 12:08:19 |
| 53258802 | סקודה צ'כיה | OCTAVIA | 2021 | 29/08/2026 | 12:08:17 |
| 82295501 | יונדאי קוריאה הדרומית | IONIQ HYBRID | 2019 | 29/08/2026 | 12:08:17 |
| 68129504 | מרצדס בנץ גרמנ | - | 2026 | 29/08/2026 | 12:08:16 |
| 80522001 | טויוטה טורקיה | COROLLA HSD SDN | 2019 | 29/08/2026 | 12:08:13 |
| 80522001 | טויוטה טורקיה | COROLLA HSD SDN | 2019 | 29/08/2026 | 12:08:12 |
| 48024702 | סי.אף.מוטו.סין | - | 2022 | 29/08/2026 | 12:08:11 |
| 80522001 | טויוטה טורקיה | COROLLA HSD SDN | 2019 | 29/08/2026 | 12:08:10 |
| 7775570 | פולקסווגן גרמניה | GOLF | 2010 | 29/08/2026 | 12:08:08 |
| 55452002 | מ.ג סין | EHS PHEV | 2023 | 29/08/2026 | 12:08:08 |
| 20982404 | פורשה גרמניה | 911 GTS | 2026 | 29/08/2026 | 12:08:05 |
| 1752484 | דאציה מרוקו | DOKKER | 2017 | 29/08/2026 | 12:08:02 |
| 67384801 | הונדה איטליה | - | 2019 | 29/08/2026 | 12:07:59 |
| 71146802 | טויוטה טורקיה | COROLLA HSD SDN | 2021 | 29/08/2026 | 12:07:58 |
| 45792002 | סקודה צ'כיה | KODIAQ | 2021 | 29/08/2026 | 12:07:58 |
| 19547401 | רנו טורקיה | CLIO | 2018 | 29/08/2026 | 12:07:55 |
| 53496901 | יונדאי צ'כיה | I30 N | 2019 | 29/08/2026 | 12:07:52 |
| 3274233 | דאצ'יה רומניה | SANDERO | 2015 | 29/08/2026 | 12:07:47 |
| 8359334 | פולאריס מקסיקו | - | 2016 | 29/08/2026 | 12:07:42 |
| 50912901 | מיצובישי יפן | ECLIPSE CROSS | 2018 | 29/08/2026 | 12:07:42 |
| 6635367 | סובארו יפן | OUTBACK | 2011 | 29/08/2026 | 12:07:37 |
| 1249130 | סובארו יפן | IMPREZA | 2014 | 29/08/2026 | 12:07:34 |
| 8189633 | הונדה בריטניה | CIVIC | 2015 | 29/08/2026 | 12:07:34 |
| 82909402 | טויוטה צרפת | YARIS HYBRID | 2022 | 29/08/2026 | 12:07:33 |
| 7775570 | פולקסווגן גרמניה | GOLF | 2010 | 29/08/2026 | 12:07:32 |
| 9830264 | סוזוקי-יפן | SX4 | 2008 | 29/08/2026 | 12:07:32 |
| 15628004 | טויוטה יפן | RAV4 HYBRID | 2025 | 29/08/2026 | 12:07:31 |
| 81142403 | סקודה צ'כיה | KAMIQ FL | 2024 | 29/08/2026 | 12:07:28 |
| 3725835 | יונדאי קוריאה | ATOS PRIME | 2001 | 29/08/2026 | 12:07:27 |
| 56417602 | יונדאי קוריאה הדרומית | IONIQ HYBRID | 2021 | 29/08/2026 | 12:07:25 |
| 7380853 | אאודי בלגיה | A1 | 2015 | 29/08/2026 | 12:07:22 |
| 42395202 | רובר בריטניה | R.ROVER VELAR | 2022 | 29/08/2026 | 12:07:22 |
| 9322587 | סיטרואן ספרד | C4 PICASSO | 2017 | 29/08/2026 | 12:07:21 |
| 34052103 | יונדאי קוריאה הדרומית | ELANTRA HEV | 2023 | 29/08/2026 | 12:07:19 |
| 4086133 | קיה סלובקיה | SPORTAGE | 2015 | 29/08/2026 | 12:07:18 |
| 1308572 | סאנגיונג קוריאה הדרומית | ACTY0N | 2010 | 29/08/2026 | 12:07:17 |
| 6663833 | קיה סלובקיה | CEED | 2015 | 29/08/2026 | 12:07:17 |
| 24996502 | פורד גרמניה | FOCUS | 2020 | 29/08/2026 | 12:07:16 |
| 45908601 | טויוטה יפן | PRIUS PLUS | 2019 | 29/08/2026 | 12:07:15 |
| 44663101 | טויוטה צרפת | YARIS HYBRID | 2018 | 29/08/2026 | 12:07:14 |
| 9899178 | מרכז הגרורים | - | 2016 | 29/08/2026 | 12:07:13 |
| 3768376 | יונדאי קוריאה הדרומית | IX35 | 2011 | 29/08/2026 | 12:07:12 |
| 51550102 | שברולט קוריאה הדרומית | SPARK | 2021 | 29/08/2026 | 12:07:12 |
| 34435001 | ב מ וו גרמניה | 430I | 2019 | 29/08/2026 | 12:07:11 |
| 3753372 | שברולט ד.קוריא | OPTRA | 2010 | 29/08/2026 | 12:07:10 |
| 13185701 | קיה סלובקיה | SPORTAGE | 2017 | 29/08/2026 | 12:07:10 |
| 9630657 | ניסאן יפן | - | 2004 | 29/08/2026 | 12:07:10 |
| 3749679 | ניסאן הודו | MICRA | 2012 | 29/08/2026 | 12:07:08 |
| 2596975 | אופל פולין | ASTRA | 2012 | 29/08/2026 | 12:07:07 |